This is the latest recevied weather packets stored in our database for station/object KX4O-13. If no packets are shown the sender has not sent any weather packets the latest 1 day(s).
| Time | Temp. | Humidity | Pressure | Rain* | Wind** | Luminosity | Snow |
|---|---|---|---|---|---|---|---|
| 1778036452 | 20° C | 52% | 1010.2 hPa | 0 mm | 2.24 m/s, 175° | 0 W/m² | - |
| 1778036152 | 20° C | 51% | 1010.3 hPa | 0 mm | 1.79 m/s, 189° | 0 W/m² | - |
| 1778035852 | 20° C | 50% | 1010.3 hPa | 0 mm | 1.79 m/s, 161° | 0 W/m² | - |
| 1778035552 | 20° C | 49% | 1010.4 hPa | 0 mm | 1.34 m/s, 176° | 0 W/m² | - |
| 1778035252 | 20.56° C | 49% | 1010.5 hPa | 0 mm | 1.79 m/s, 188° | 0 W/m² | - |
| 1778034952 | 20.56° C | 49% | 1010.5 hPa | 0 mm | 1.79 m/s, 158° | 0 W/m² | - |
| 1778034654 | 20.56° C | 48% | 1010.4 hPa | 0 mm | 1.79 m/s, 175° | 0 W/m² | - |
| 1778034352 | 20.56° C | 47% | 1010.4 hPa | 0 mm | 2.24 m/s, 180° | 0 W/m² | - |
| 1778034052 | 20.56° C | 47% | 1010.4 hPa | 0 mm | 1.79 m/s, 185° | 0 W/m² | - |
| 1778033752 | 20.56° C | 46% | 1010.5 hPa | 0 mm | 1.79 m/s, 170° | 0 W/m² | - |
| 1778033452 | 21.11° C | 45% | 1010.5 hPa | 0 mm | 1.79 m/s, 192° | 0 W/m² | - |
| 1778033152 | 21.11° C | 45% | 1010.4 hPa | 0 mm | 1.79 m/s, 197° | 0 W/m² | - |
| 1778032852 | 21.11° C | 43% | 1010.5 hPa | 0 mm | 1.79 m/s, 182° | 0 W/m² | - |
| 1778032552 | 21.11° C | 44% | 1010.6 hPa | 0 mm | 1.79 m/s, 182° | 0 W/m² | - |
| 1778032254 | 21.67° C | 43% | 1010.5 hPa | 0 mm | 2.24 m/s, 181° | 0 W/m² | - |
| 1778031952 | 21.67° C | 42% | 1010.4 hPa | 0 mm | 2.24 m/s, 181° | 0 W/m² | - |
| 1778031652 | 21.67° C | 43% | 1010.3 hPa | 0 mm | 1.79 m/s, 186° | 0 W/m² | - |
| 1778031352 | 21.67° C | 42% | 1010.3 hPa | 0 mm | 1.34 m/s, 192° | 0 W/m² | - |
| 1778031052 | 21.67° C | 42% | 1010.3 hPa | 0 mm | 1.79 m/s, 199° | 0 W/m² | - |
| 1778030752 | 21.67° C | 42% | 1010.2 hPa | 0 mm | 2.68 m/s, 221° | 0 W/m² | - |
| 1778030452 | 22.22° C | 41% | 1010.2 hPa | 0 mm | 2.24 m/s, 188° | 0 W/m² | - |
| 1778030152 | 21.67° C | 42% | 1010.1 hPa | 0 mm | 2.24 m/s, 191° | 0 W/m² | - |
| 1778029854 | 21.67° C | 41% | 1010.1 hPa | 0 mm | 2.24 m/s, 206° | 0 W/m² | - |
| 1778029552 | 22.22° C | 41% | 1010 hPa | 0 mm | 1.79 m/s, 168° | 0 W/m² | - |
| 1778029252 | 22.22° C | 40% | 1009.9 hPa | 0 mm | 1.79 m/s, 167° | 0 W/m² | - |
* Rain latest hour (hover to see other rain measurements)
** Current wind speed in m/s (hover to see current wind gust speed)